Cherokee, IA

5:05 PM CDT on September 24, 2017 (GMT -0500)
Cherokee Municipal

Weather History for KCKP - October, 2012

Change the Weather History Date:

Sunday, October 14, 2012

  Actual Average Record
Temperature  
Mean Temperature 52 °F -  
Max Temperature 64 °F 63 °F 90 °F (1975)
Min Temperature 39 °F 36 °F 22 °F (1979)
Degree Days  
Heating Degree Days 14    
Growing Degree Days 2 (Base 50)    
Moisture  
Dew Point 39 °F    
Average Humidity 62    
Maximum Humidity 93    
Minimum Humidity 30    
Precipitation  
Precipitation 0.00 in - - ()
Sea Level Pressure  
Sea Level Pressure 29.83 in    
Wind  
Wind Speed 11 mph (NNW)    
Max Wind Speed 20 mph    
Max Gust Speed 32 mph    
Visibility 9 miles    
Events Thunderstorm    
Averages and records for this station are not official NWS values.
T = Trace of Precipitation, MM = Missing Value Source: NWS Daily Summary

Daily Weather History Graph

Daily Weather History Graph

Search for Another Location

Airport or City:

Trip Planner

Search our weather history database for the weather conditions in past years. The results will help you decide how hot, cold, wet, or windy it might be!

Date:

Astronomy

Oct. 14, 2012 Rise Set
Actual Time 7:34 AM CDT 6:40 PM CDT
Civil Twilight 7:06 AM CDT 7:09 PM CDT
Nautical Twilight 6:33 AM CDT 7:41 PM CDT
Astronomical Twilight 6:00 AM CDT 8:14 PM CDT
Moon 6:34 AM CDT (10/14) 6:00 PM CDT (10/14)
Length of Visible Light 12h 02m
Length of Day
11h 05m
Waning Crescent, 1% of the Moon is Illuminated
Oct 14
Waning Crescent
Oct 15
New
Oct 21
First Quarter
Oct 29
Full
Nov 6
Last Quarter

Hourly Weather History & Observations

Time (CDT) Temp. Windchill Dew Point Humidity Pressure Visibility Wind Dir Wind Speed Gust Speed Precip Events Conditions
12:15 AM 59.0 °F - 52.5 °F 79% 29.65 in 10.0 mi NNE 10.4 mph - N/A   Overcast
12:35 AM 58.1 °F - 52.0 °F 80% 29.66 in 10.0 mi NNE 11.5 mph - N/A   Mostly Cloudy
12:55 AM 57.2 °F - 52.0 °F 83% 29.67 in 10.0 mi NNE 8.1 mph - N/A   Scattered Clouds
1:15 AM 56.5 °F - 52.2 °F 85% 29.68 in 10.0 mi NNE 10.4 mph - N/A   Scattered Clouds
1:35 AM 55.9 °F - 52.3 °F 88% 29.68 in 10.0 mi NNE 8.1 mph 16.1 mph N/A   Mostly Cloudy
1:55 AM 55.4 °F - 52.0 °F 88% 29.68 in 7.0 mi NNE 10.4 mph - N/A   Mostly Cloudy
2:15 AM 54.5 °F - 51.8 °F 91% 29.69 in 7.0 mi NNE 10.4 mph - N/A   Scattered Clouds
2:35 AM 54.1 °F - 51.6 °F 91% 29.68 in 7.0 mi North 11.5 mph 16.1 mph N/A   Clear
2:55 AM 53.8 °F - 50.0 °F 87% 29.68 in 7.0 mi North 12.7 mph 18.4 mph N/A Thunderstorm Clear
3:15 AM 53.1 °F - 49.1 °F 86% 29.70 in 7.0 mi North 10.4 mph 16.1 mph N/A   Clear
3:35 AM 52.7 °F - 48.4 °F 85% 29.72 in 7.0 mi North 12.7 mph 17.3 mph N/A   Clear
3:55 AM 52.0 °F - 48.2 °F 87% 29.74 in 7.0 mi NNE 10.4 mph - N/A   Clear
4:15 AM 51.3 °F - 48.0 °F 89% 29.73 in 7.0 mi North 11.5 mph - N/A   Clear
4:35 AM 51.1 °F - 47.7 °F 88% 29.72 in 7.0 mi NNE 10.4 mph - N/A   Clear
4:55 AM 50.5 °F - 47.5 °F 89% 29.72 in 7.0 mi North 6.9 mph - N/A   Clear
5:15 AM 50.2 °F - 47.3 °F 90% 29.73 in 7.0 mi North 8.1 mph - N/A   Clear
5:35 AM 49.6 °F - 46.9 °F 90% 29.74 in 7.0 mi North 10.4 mph - N/A   Clear
5:55 AM 49.1 °F - 46.9 °F 92% 29.75 in 7.0 mi North 11.5 mph - N/A   Scattered Clouds
6:15 AM 49.5 °F - 47.3 °F 92% 29.75 in 7.0 mi NNW 18.4 mph 23.0 mph N/A   Overcast
6:35 AM 49.5 °F - 47.5 °F 93% 29.75 in 7.0 mi NNW 12.7 mph 23.0 mph N/A   Overcast
6:55 AM 49.6 °F - 47.5 °F 92% 29.76 in 7.0 mi NNW 10.4 mph - N/A   Overcast
7:15 AM 47.8 °F - 45.7 °F 92% 29.77 in 5.0 mi NNW 15.0 mph 20.7 mph N/A   Overcast
7:35 AM 46.6 °F - 43.9 °F 90% 29.77 in 7.0 mi NNW 11.5 mph 20.7 mph N/A   Overcast
7:55 AM 44.6 °F 37.8 °F 39.0 °F 81% 29.78 in 10.0 mi NNW 15.0 mph 19.6 mph N/A   Mostly Cloudy
8:15 AM 43.9 °F 38.3 °F 37.8 °F 79% 29.80 in 10.0 mi NNW 10.4 mph - N/A   Scattered Clouds
8:35 AM 43.7 °F 37.7 °F 37.0 °F 77% 29.81 in 10.0 mi NNW 11.5 mph 17.3 mph N/A   Clear
8:55 AM 44.1 °F 38.6 °F 36.5 °F 75% 29.82 in 10.0 mi NNW 10.4 mph 17.3 mph N/A   Clear
9:15 AM 44.8 °F 39.0 °F 36.3 °F 72% 29.82 in 10.0 mi NNW 11.5 mph 18.4 mph N/A   Clear
9:35 AM 45.5 °F 38.1 °F 36.0 °F 69% 29.83 in 10.0 mi NNW 18.4 mph 23.0 mph N/A   Clear
9:55 AM 45.7 °F 39.1 °F 35.1 °F 66% 29.84 in 10.0 mi NNW 15.0 mph 21.9 mph N/A   Clear
10:15 AM 46.4 °F 39.2 °F 34.5 °F 63% 29.84 in 10.0 mi NNW 18.4 mph 24.2 mph N/A   Clear
10:35 AM 48.7 °F - 34.2 °F 57% 29.84 in 10.0 mi NNW 18.4 mph 26.5 mph N/A   Clear
10:55 AM 50.7 °F - 34.9 °F 55% 29.84 in 10.0 mi North 16.1 mph 27.6 mph N/A   Clear
11:15 AM 52.7 °F - 34.9 °F 51% 29.85 in 10.0 mi North 19.6 mph 27.6 mph N/A   Clear
11:35 AM 54.1 °F - 34.7 °F 48% 29.86 in 10.0 mi NNW 17.3 mph 27.6 mph N/A   Clear
11:55 AM 55.6 °F - 34.5 °F 45% 29.86 in 10.0 mi North 18.4 mph 27.6 mph N/A   Clear
12:15 PM 56.7 °F - 34.5 °F 43% 29.86 in 10.0 mi NNW 18.4 mph 27.6 mph N/A   Clear
12:35 PM 58.1 °F - 34.7 °F 41% 29.87 in 10.0 mi NNW 19.6 mph 26.5 mph N/A   Clear
12:55 PM 60.6 °F - 35.1 °F 38% 29.86 in 10.0 mi NNW 13.8 mph 23.0 mph N/A   Clear
1:15 PM 61.0 °F - 35.1 °F 38% 29.87 in 10.0 mi North 16.1 mph 27.6 mph N/A   Clear
1:35 PM 62.1 °F - 36.0 °F 38% 29.87 in 10.0 mi NNW 16.1 mph 26.5 mph N/A   Clear
1:55 PM 62.4 °F - 34.3 °F 35% 29.87 in 10.0 mi NNW 16.1 mph 26.5 mph N/A   Clear
2:15 PM 62.6 °F - 32.9 °F 33% 29.87 in 10.0 mi NNW 16.1 mph 28.8 mph N/A   Clear
2:35 PM 63.0 °F - 32.9 °F 32% 29.87 in 10.0 mi NW 18.4 mph 24.2 mph N/A   Clear
3:15 PM 63.7 °F - 32.0 °F 31% 29.87 in 10.0 mi NNW 19.6 mph 32.2 mph N/A   Clear
3:35 PM 63.7 °F - 32.0 °F 31% 29.88 in 10.0 mi NNW 19.6 mph 26.5 mph N/A   Clear
3:55 PM 63.9 °F - 32.0 °F 30% 29.88 in 10.0 mi NNW 13.8 mph 21.9 mph N/A   Clear
4:15 PM 63.7 °F - 31.8 °F 30% 29.88 in 10.0 mi NNW 13.8 mph 20.7 mph N/A   Clear
4:35 PM 64.0 °F - 31.6 °F 30% 29.88 in 10.0 mi NW 13.8 mph 21.9 mph N/A   Clear
4:55 PM 63.7 °F - 31.6 °F 30% 29.89 in 10.0 mi NW 12.7 mph 20.7 mph N/A   Clear
5:15 PM 63.5 °F - 31.6 °F 30% 29.89 in 10.0 mi WNW 13.8 mph 21.9 mph N/A   Clear
5:35 PM 63.1 °F - 31.6 °F 31% 29.89 in 10.0 mi NW 13.8 mph 19.6 mph N/A   Clear
5:55 PM 62.1 °F - 31.8 °F 32% 29.90 in 10.0 mi WNW 12.7 mph 16.1 mph N/A   Clear
6:15 PM 61.0 °F - 32.0 °F 34% 29.90 in 10.0 mi NW 9.2 mph - N/A   Clear
6:35 PM 59.4 °F - 32.0 °F 36% 29.90 in 10.0 mi NW 5.8 mph - N/A   Clear
6:55 PM 58.1 °F - 32.2 °F 38% 29.91 in 10.0 mi NW 6.9 mph - N/A   Clear
7:15 PM 56.7 °F - 32.5 °F 40% 29.91 in 10.0 mi NNW 6.9 mph - N/A   Clear
7:35 PM 55.9 °F - 32.9 °F 42% 29.92 in 10.0 mi NW 6.9 mph - N/A   Clear
7:55 PM 54.9 °F - 32.9 °F 43% 29.93 in 10.0 mi NNW 6.9 mph - N/A   Clear
8:15 PM 53.6 °F - 33.1 °F 46% 29.94 in 10.0 mi NNW 4.6 mph - N/A   Clear
8:35 PM 52.0 °F - 33.1 °F 49% 29.94 in 10.0 mi NNW 4.6 mph - N/A   Clear
8:55 PM 51.4 °F - 33.1 °F 50% 29.94 in 10.0 mi NNW 4.6 mph - N/A   Clear
9:15 PM 45.5 °F - 32.9 °F 61% 29.95 in 10.0 mi Calm Calm - N/A   Clear
9:35 PM 45.5 °F - 32.9 °F 61% 29.95 in 10.0 mi Calm Calm - N/A   Clear
9:55 PM 46.2 °F - 32.5 °F 59% 29.95 in 10.0 mi Calm Calm - N/A   Clear
10:15 PM 45.1 °F - 32.9 °F 62% 29.96 in 10.0 mi Calm Calm - N/A   Clear
10:35 PM 43.2 °F - 32.2 °F 65% 29.96 in 10.0 mi Calm Calm - N/A   Clear
10:55 PM 42.3 °F - 32.4 °F 68% 29.96 in 10.0 mi Calm Calm - N/A   Clear
11:15 PM 41.7 °F - 32.4 °F 69% 29.96 in 10.0 mi Calm Calm - N/A   Clear
11:35 PM 39.6 °F - 32.9 °F 77% 29.96 in 10.0 mi Calm Calm - N/A   Clear
11:55 PM 40.6 °F - 33.3 °F 75% 29.96 in 10.0 mi Calm Calm - N/A   Clear